2021-006BG (47467 NORAD) Tracking and Keplerian Element Data
This shows tracking and keplerian element data for the satellite.
Feedback or suggestion? Click here.
Element | Value |
Catalog | 47467 |
Name | 2021-006BG |
Epoch Orbit | 472 |
Epoch Day | 53.86075148 |
Epoch Year | 2021 |
RAAN | 116.9939 |
Inclination | 97.4995 |
Eccentricity | 0.0010666 |
Argument of Perigee | 149.8091 |
Mean Anonmoly | 210.3756 |
Mean Motion | 15.1153909 |
Decay Rate | 1.393E-05 |
L1 | 1 47467U 21006BG 21053.86075148 .00001393 00000-0 85861-4 0 9995 |
L2 | 2 47467 97.4995 116.9939 0010666 149.8091 210.3756 15.11539090 4723 |
Live tracking and technical data element details for 2021-006BG (NORAD 47467). 2021-006BG can be tracked NOW for your location showing map with azimuth and elevation plus other details from your city location.
Track the satellite on the map from your city or location and see movement details for azimuth, elevation, latitude, longitude, range, height, and movement on the map or in text.
IsCatalogInMostPopularTable: catalog: 47467, numindb: 16
Update: records affected: 1
GetName: 47467 2021-006BG
Hit Count: updated at: Fri, 16 Apr 2021 12:19:56 GMT